[[{"header":{"parameterUnit":"m.s-1","parameterCategory":1,"la1":30.2991,"la2":30.254,"lo1":-89.0895,"lo2":-89.0444,"dy":0.0017,"dx":0.0017,"nx":28,"ny":28,"refTime":"2024-03-26T03:00:00:Z","depth":0,"parameterNumber":2,"parameterNumberName":"U-component_of_WINDS"},"data":[0,0,0,0,0,0,0,0,0,0,0,0,0,0,0,0,0,0,0,0,0,0,0,0,0,0,0,0,0,0,0,0,0,0,0,0,0,0,0,0,0,0,0,0,0,0,0,0,0,0,0,0,0,0,0,0,0,0,-5.7909,-5.7911,0,-5.8032,-5.8034,-5.8035,-5.8063,-5.8062,-5.8061,-5.806,-5.8193,-5.8197,-5.8201,0,0,0,0,0,0,0,0,0,0,0,0,0,-5.7704,-5.7708,-5.7909,-5.7911,-5.7912,-5.8032,-5.8034,-5.8035,-5.8063,-5.8062,-5.8061,-5.806,-5.8191,-5.8196,-5.8201,0,0,0,0,0,0,0,0,0,0,0,0,0,-5.7807,-5.7709,-5.7909,-5.794,-5.7944,-5.8032,-5.8034,-5.8036,-5.8063,-5.8062,-5.8061,-5.8059,-5.8189,-5.8196,-5.8202,-5.8269,0,0,-5.8222,-5.8225,0,0,0,0,0,0,0,0,-5.7801,-5.7815,-5.7934,-5.7938,-5.7943,-5.8031,-5.801,-5.8114,-5.8064,-5.8018,-5.806,-5.8059,-5.814,-5.8151,-5.8177,-5.8275,-5.8281,-5.8223,-5.8227,-5.8229,-5.8231,0,0,0,0,0,0,0,-5.7794,-5.781,-5.7958,-5.7936,-5.7941,-5.795,-5.7963,-5.803,-5.8085,-5.8022,-5.8024,-5.8038,-5.8142,-5.8171,-5.818,-5.8283,-5.8223,-5.8228,-5.8232,-5.8235,-5.8444,-5.8445,0,0,0,0,0,0,-5.7781,-5.7803,-5.7954,-5.7962,-5.7867,-5.7955,-5.797,-5.8004,-5.8085,-5.8096,-5.8039,-5.8039,-5.816,-5.8173,-5.8185,-5.8269,-5.8229,-5.8236,-5.8239,-5.8442,-5.8444,-5.8446,0,0,0,0,0,0,-5.7776,-5.7794,-5.7949,-5.7883,-5.7904,-5.796,-5.7998,-5.8007,-5.8035,-5.8098,-5.8108,-5.8057,-5.8159,-5.8176,-5.8248,-5.8274,-5.8238,-5.8244,-5.844,-5.8443,-5.8445,-5.8436,0,0,0,0,0,0,-5.777,-5.7792,-5.7816,-5.7883,-5.7907,-5.8008,-5.8,-5.801,-5.8046,-5.8046,-5.8117,-5.8128,-5.816,-5.8238,-5.8254,-5.8282,-5.825,-5.8438,-5.8441,-5.8444,-5.8434,-5.8438,-5.8441,0,0,0,0,0,-5.7763,-5.781,-5.7817,-5.7835,-5.7938,-5.8009,-5.8023,-5.8056,-5.8047,-5.8073,-5.8114,-5.8126,-5.8268,-5.8245,-5.8264,-5.8294,-5.8437,-5.844,-5.8444,-5.8433,-5.8437,-5.8441,0,0,0,0,0,0,-5.7746,-5.7819,-5.7828,-5.7898,-5.7947,-5.8013,-5.8047,-5.806,-5.8114,-5.8113,-5.8155,-5.8171,-5.824,-5.8275,-5.8247,-5.8363,-5.8353,-5.836,-5.8338,-5.8342,-5.8346,-5.8336,-5.8255,0,0,0,0,0,-5.7751,-5.78,-5.7862,-5.7918,-5.7942,-5.799,-5.8022,-5.8044,-5.8097,-5.8118,-5.8164,-5.8217,-5.8274,-5.831,-5.8366,-5.844,-5.8457,-5.847,-5.8474,-5.8476,-5.8482,-5.8525,-5.8532,-5.8458,-5.8458,-5.8458,0,0,-5.7761,-5.7807,-5.7835,-5.7916,-5.7956,-5.8008,-5.8007,-5.8062,-5.8102,-5.8128,-5.8197,-5.8233,-5.8295,-5.8368,-5.8403,-5.8399,-5.8506,-5.8481,-5.8482,-5.8487,-5.8529,-5.8536,-5.8542,-5.846,-5.846,-5.846,0,0,-5.7805,-5.7844,-5.7895,-5.7935,-5.7995,-5.8027,-5.804,-5.8104,-5.8128,-5.8199,-5.8219,-5.8269,-5.8365,-5.8409,-5.8443,-5.8505,-5.8518,-5.8523,-5.854,-5.8581,-5.8586,-5.8592,-5.8614,-5.8621,-5.8528,-5.8528,-5.8528,0,-5.781,-5.7886,-5.792,-5.7974,-5.8009,-5.8033,-5.8086,-5.8124,-5.8201,-5.8226,-5.822,-5.8342,-5.8386,-5.847,-5.8485,-5.8512,-5.8529,-5.8514,-5.8582,-5.8588,-5.8594,-5.8615,-5.8624,-5.8528,-5.8528,-5.8528,-5.8528,0,-5.789,-5.7943,-5.7978,-5.8048,-5.8088,-5.8141,-5.8184,-5.8221,-5.824,-5.8273,-5.8346,-5.8399,-5.8466,-5.8488,-5.8508,-5.8575,-5.8571,-5.8574,-5.8563,-5.86,-5.8621,-5.863,-5.8528,-5.8528,-5.8528,-5.8528,0,0,-5.7926,-5.8015,-5.8027,-5.8059,-5.8128,-5.8171,-5.8226,-5.829,-5.832,-5.8373,-5.8421,-5.8503,-5.8506,-5.8545,-5.8571,-5.8607,-5.8653,-5.8605,-5.8608,-5.8612,-5.8731,-5.8728,-5.8737,-5.8662,-5.8664,-5.8666,-5.8726,0,-5.7979,-5.8075,-5.8107,-5.8188,-5.8238,-5.8262,-5.8311,-5.836,-5.8393,-5.8442,-5.848,-5.8537,-5.8536,-5.856,-5.8597,-5.8639,-5.8677,-5.8635,-5.8709,-5.8711,-5.8691,-5.8748,-5.8745,-5.8799,-5.8734,-5.8736,-5.8737,0,-5.8052,-5.8103,-5.8188,-5.825,-5.8273,-5.8315,-5.8376,-5.8423,-5.848,-5.8501,-5.8545,-5.8568,-5.8629,-5.8616,-5.8702,-5.8673,-5.8706,-5.8731,-5.8734,-5.8742,-5.8725,-5.8756,-5.8817,-5.8824,-5.875,-5.8749,-5.8748,0,-5.8069,-5.816,-5.8222,-5.825,-5.8324,-5.8354,-5.8387,-5.8442,-5.8478,-5.8533,-5.8557,-5.8619,-5.8653,-5.8702,-5.8741,-5.8728,-5.8824,-5.8814,-5.8845,-5.8844,-5.8863,-5.8861,-5.8929,-5.8885,-5.8885,-5.8885,-5.8885,0,-5.8124,-5.8175,-5.8231,-5.8269,-5.8328,-5.8366,-5.8424,-5.8459,-5.8508,-5.8555,-5.8582,-5.8626,-5.8676,-5.8728,-5.876,-5.8827,-5.8842,-5.8863,-5.8871,-5.886,-5.8857,-5.8881,-5.8878,-5.8887,-5.8887,-5.8886,-5.8886,0,-5.8153,-5.8192,-5.8262,-5.8327,-5.8344,-5.8385,-5.8441,-5.8481,-5.8515,-5.8575,-5.8591,-5.8646,-5.8708,-5.8753,-5.8834,-5.8856,-5.8927,-5.8935,-5.8907,-5.8911,-5.8939,-5.8936,-5.9024,-5.9038,-5.8985,-5.8986,-5.8986,0,-5.8185,-5.8224,-5.8292,-5.8325,-5.8357,-5.8409,-5.8446,-5.8485,-5.8523,-5.8591,-5.8623,-5.8686,-5.8739,-5.8838,-5.8887,-5.895,-5.8959,-5.8986,-5.8969,-5.8957,-5.8959,-5.8956,-5.8961,-5.8988,-5.8988,-5.8989,-5.8989,0,-5.8237,-5.8255,-5.8305,-5.8362,-5.8404,-5.8452,-5.8501,-5.8527,-5.8576,-5.8617,-5.8679,-5.872,-5.8802,-5.8866,-5.8933,-5.897,-5.8989,-5.8994,-5.9004,-5.8994,-5.8975,-5.8985,-5.8913,-5.8992,-5.8991,-5.8991,-5.8991,-5.8991,-5.8269,-5.8305,-5.8358,-5.8414,-5.8454,-5.8498,-5.8538,-5.8577,-5.8629,-5.8696,-5.8718,-5.8783,-5.8841,-5.8933,-5.8971,-5.9024,-5.9023,-5.9038,-5.9042,-5.9045,-5.9044,-5.8967,-5.9037,-5.9037,-5.9037,-5.9037,-5.9037,0,-5.8322,-5.8357,-5.8408,-5.8473,-5.8518,-5.8528,-5.8583,-5.862,-5.8676,-5.8726,-5.8777,-5.885,-5.8912,-5.8965,-5.903,-5.9063,-5.9073,-5.9079,-5.9076,-5.9085,-5.9042,-5.9026,-5.9069,-5.9069,-5.9069,-5.9069,-5.9069,-5.9069,-5.8355,-5.8417,-5.844,-5.8523,-5.8559,-5.862,-5.8651,-5.8693,-5.8733,-5.8812,-5.8863,-5.8896,-5.8949,-5.9018,-5.9076,-5.909,-5.9113,-5.9117,-5.9133,-5.9092,-5.9088,-5.9084,-5.9069,-5.9121,-5.9121,-5.9172,-5.9172,-5.9173]},{"header":{"parameterUnit":"m.s-1","parameterCategory":1,"la1":30.2991,"la2":30.254,"lo1":-89.0895,"lo2":-89.0444,"dy":0.0017,"dx":0.0017,"nx":28,"ny":28,"refTime":"2024-03-26T03:00:00:Z","depth":0,"parameterNumber":3,"parameterNumberName":"V-component_of_WINDS"},"data":[0,0,0,0,0,0,0,0,0,0,0,0,0,0,0,0,0,0,0,0,0,0,0,0,0,0,0,0,0,0,0,0,0,0,0,0,0,0,0,0,0,0,0,0,0,0,0,0,0,0,0,0,0,0,0,0,0,0,9.3287,9.3289,0,9.3482,9.3484,9.3486,9.3475,9.3472,9.3469,9.3466,9.3661,9.3668,9.3676,0,0,0,0,0,0,0,0,0,0,0,0,0,9.2902,9.2909,9.3287,9.329,9.3292,9.3482,9.3484,9.3487,9.3475,9.3472,9.3468,9.3465,9.3658,9.3668,9.3677,0,0,0,0,0,0,0,0,0,0,0,0,0,9.308,9.2912,9.3287,9.3309,9.3313,9.3481,9.3484,9.3488,9.3476,9.3471,9.3467,9.3463,9.3655,9.3667,9.3678,9.3835,0,0,9.3714,9.3719,0,0,0,0,0,0,0,0,9.307,9.3095,9.3303,9.3308,9.3312,9.345,9.342,9.3604,9.3477,9.3414,9.3466,9.3461,9.3594,9.361,9.3656,9.3845,9.3853,9.3715,9.3722,9.3727,9.3731,0,0,0,0,0,0,0,9.3058,9.3086,9.3364,9.3306,9.3312,9.3309,9.3329,9.3455,9.3525,9.3419,9.3419,9.3442,9.3595,9.3645,9.366,9.3856,9.3715,9.3725,9.3732,9.3737,9.4188,9.4192,0,0,0,0,0,0,9.3041,9.3076,9.3358,9.337,9.3179,9.3319,9.3342,9.341,9.3524,9.3537,9.3445,9.3441,9.3627,9.3647,9.3667,9.3862,9.3727,9.3738,9.3745,9.4183,9.4189,9.4194,0,0,0,0,0,0,9.3033,9.3066,9.335,9.3223,9.3259,9.333,9.3406,9.3416,9.3465,9.3544,9.3556,9.3483,9.3624,9.3651,9.3795,9.3869,9.3743,9.3754,9.4177,9.4185,9.4191,9.4251,0,0,0,0,0,0,9.3022,9.3064,9.3124,9.3225,9.3266,9.3475,9.3411,9.3423,9.3486,9.3482,9.3582,9.3595,9.3623,9.3778,9.3807,9.3882,9.3763,9.4171,9.418,9.4189,9.4243,9.426,9.4274,0,0,0,0,0,9.3008,9.3131,9.3128,9.3162,9.3343,9.348,9.3503,9.3534,9.3492,9.3554,9.3605,9.3592,9.3856,9.3793,9.3825,9.3905,9.4166,9.4178,9.4188,9.4236,9.4256,9.4274,0,0,0,0,0,0,9.3035,9.3145,9.3142,9.3301,9.3382,9.3477,9.3556,9.3554,9.3647,9.3639,9.3672,9.3695,9.3841,9.3887,9.3815,9.4066,9.4005,9.4023,9.403,9.405,9.4066,9.4052,9.3773,0,0,0,0,0,9.306,9.3163,9.3252,9.3384,9.3425,9.3484,9.3544,9.3562,9.3646,9.3679,9.374,9.3821,9.3923,9.3989,9.4086,9.4249,9.4272,9.4321,9.4336,9.4349,9.4364,9.4458,9.4481,9.423,9.423,9.423,0,0,9.3112,9.3184,9.3247,9.3392,9.3456,9.3562,9.3512,9.3625,9.3704,9.3695,9.3837,9.3885,9.3978,9.4133,9.4205,9.4177,9.4439,9.4363,9.4372,9.4381,9.4472,9.4495,9.4516,9.4238,9.4237,9.4235,0,0,9.3261,9.3325,9.3444,9.3511,9.361,9.3649,9.3678,9.3775,9.3808,9.3951,9.3948,9.4041,9.4214,9.4282,9.4339,9.4518,9.451,9.4548,9.463,9.472,9.474,9.4758,9.4824,9.4848,9.4563,9.4563,9.4564,0,9.3312,9.3472,9.3505,9.3621,9.3685,9.3685,9.3807,9.3869,9.3994,9.4039,9.4006,9.4227,9.4288,9.4462,9.4506,9.4551,9.4586,9.4537,9.4735,9.4753,9.477,9.4834,9.4859,9.4568,9.4567,9.4567,9.4566,0,9.3532,9.3643,9.3727,9.3852,9.3926,9.4043,9.4094,9.4165,9.4177,9.4219,9.4366,9.4441,9.4556,9.4598,9.4609,9.4774,9.4754,9.4728,9.4668,9.4798,9.4858,9.4883,9.4574,9.4572,9.4571,9.457,0,0,9.3702,9.3846,9.3877,9.3935,9.4046,9.4132,9.4251,9.4365,9.4427,9.4513,9.4615,9.4763,9.4741,9.4806,9.4824,9.4904,9.5045,9.4868,9.4871,9.4901,9.5235,9.5256,9.5284,9.504,9.5045,9.5049,9.5228,0,9.3864,9.4076,9.4111,9.4297,9.4401,9.4405,9.4508,9.4587,9.4631,9.4726,9.4772,9.4879,9.484,9.488,9.4958,9.5011,9.5113,9.4998,9.5135,9.514,9.5114,9.5315,9.5337,9.5502,9.5252,9.5256,9.5259,0,9.4082,9.4178,9.4376,9.4477,9.4522,9.4614,9.4724,9.4814,9.4905,9.4931,9.5006,9.5016,9.514,9.5074,9.5246,9.5167,9.5226,9.526,9.5268,9.5283,9.5208,9.5338,9.5556,9.5582,9.5296,9.5293,9.529,0,9.419,9.4369,9.4511,9.456,9.468,9.4746,9.4799,9.4886,9.4954,9.5049,9.5094,9.5201,9.5261,9.5344,9.5383,9.5331,9.5554,9.549,9.558,9.5579,9.5627,9.5624,9.586,9.5661,9.5661,9.566,9.566,0,9.4369,9.449,9.4562,9.465,9.4786,9.4825,9.4959,9.5009,9.5088,9.5185,9.5193,9.5285,9.5331,9.5429,9.546,9.56,9.5626,9.5651,9.5658,9.5652,9.5649,9.5692,9.5682,9.5667,9.5666,9.5664,9.5663,0,9.4513,9.4566,9.4722,9.4824,9.4853,9.4949,9.5037,9.5122,9.5166,9.529,9.5322,9.539,9.5507,9.5555,9.5697,9.5718,9.588,9.5876,9.585,9.5853,9.5941,9.5933,9.6214,9.6254,9.6026,9.6028,9.603,0,9.4625,9.4719,9.4833,9.49,9.4956,9.5064,9.5134,9.5176,9.5249,9.5362,9.5435,9.5552,9.5648,9.5835,9.5897,9.6007,9.6008,9.6099,9.6025,9.6017,9.6013,9.6008,9.6019,9.6113,9.6116,9.6118,9.6119,0,9.4819,9.4841,9.4943,9.5056,9.5141,9.5231,9.5319,9.5373,9.5429,9.5511,9.5632,9.5707,9.5855,9.5972,9.6086,9.614,9.614,9.6142,9.6169,9.6165,9.6147,9.6161,9.589,9.6136,9.6134,9.6133,9.6132,9.6131,9.4952,9.5037,9.5132,9.5247,9.5318,9.5401,9.5488,9.5544,9.5647,9.5772,9.579,9.592,9.6011,9.6165,9.6224,9.6327,9.6303,9.6342,9.6352,9.6362,9.6369,9.6129,9.6347,9.6347,9.6346,9.6346,9.6346,0,9.5149,9.5211,9.5316,9.5441,9.5532,9.5526,9.5623,9.57,9.5815,9.5901,9.5997,9.6138,9.6253,9.6325,9.6441,9.651,9.6513,9.6539,9.6535,9.6548,9.6382,9.6348,9.6535,9.6535,9.6535,9.6534,9.6534,9.6534,9.5262,9.5408,9.5442,9.5623,9.5684,9.5814,9.5871,9.5948,9.6017,9.6175,9.6272,9.6319,9.6401,9.6523,9.6628,9.6647,9.669,9.6719,9.6736,9.6579,9.6559,9.6541,9.651,9.6727,9.6727,9.6894,9.6896,9.6897]}]]